This demonstration page uses our WeatherBlox Daily Observations layout. Learn more.

Left ArrowRight Arrow

34.02893, -84.19858

Hourly Observations for July 26, 2021

Temp ( °F °C ) Dew Point ( °F °C ) Humidity (%) Winds ( mph kmh ) Pressure ( in mb ) Visibility ( mi km ) Precip ( " mm )
12:53 am 00:53 Clear with Mist and Fog 76 24.4 75 23.9 97 97 Calm 29.96 1015 5 8 0.00 0.00
1:53 am 01:53 Clear with Mist and Fog 75 23.9 75 23.9 100 100 NNE 3 6 29.95 1014 5 8 0.00 0.00
2:53 am 02:53 Clear with Mist and Fog 75 23.9 74 23.3 96 96 Calm 29.94 1014 3 5 0.00 0.00
3:53 am 03:53 Clear with Mist and Fog 75 23.9 74 23.3 96 96 Calm 29.93 1014 3 5 0.00 0.00
4:40 am 04:40 Clear with Mist and Fog 74 23.3 73 22.8 97 97 Calm 29.95 1014 3 4 0.00 0.00
4:53 am 04:53 Clear with Mist and Fog 74 23.3 74 23.3 100 100 Calm 29.93 1014 3 4 0.00 0.00
5:17 am 05:17 Clear with Mist and Fog 74 23.3 73 22.8 97 97 S 3 6 29.94 1014 4 6 0.00 0.00
5:53 am 05:53 Clear with Mist and Fog 74 23.3 73 22.8 97 97 Calm 29.94 1014 4 6 0.00 0.00
6:53 am 06:53 Sunny with Mist and Fog 74 23.3 73 22.8 97 97 Calm 29.95 1014 5 8 0.00 0.00
7:53 am 07:53 Sunny with Mist and Fog 76 24.4 74 23.3 94 94 NW 5 7 29.97 1015 6 10 0.00 0.00
8:53 am 08:53 Sunny with Mist and Fog 76 24.4 74 23.3 94 94 SE 3 6 29.99 1016 5 8 0.00 0.00
9:53 am 09:53 Sunny 81 27.2 74 23.3 79 79 VRB 5 7 29.99 1016 9 14 0.00 0.00
10:53 am 10:53 Sunny 86 30 74 23.3 67 67 N 6 9 29.98 1015 9 14 0.00 0.00
11:53 am 11:53 Sunny 87 30.6 73 22.8 63 63 undefined N/A 29.97 1015 9 14 0.00 0.00
12:53 pm 12:53 Mostly Cloudy 87 30.6 75 23.9 67 67 WNW 6 9 29.96 1014 8 13 0.00 0.00
1:53 pm 13:53 Mostly Cloudy 88 31.1 74 23.3 63 63 WSW 7 11 29.94 1014 8 13 0.00 0.00
2:53 pm 14:53 Mostly Sunny 90 32.2 73 22.8 58 58 N 3 6 29.92 1013 8 13 0.00 0.00
3:53 pm 15:53 Sunny 91 32.8 72 22.2 54 54 VRB 3 6 29.90 1013 9 14 0.00 0.00
4:53 pm 16:53 Mostly Sunny 92 33.3 72 22.2 52 52 VRB 3 6 29.89 1012 9 14 0.00 0.00
5:53 pm 17:53 Sunny 92 33.3 73 22.8 54 54 WSW 7 11 29.88 1012 9 14 0.00 0.00
6:49 pm 18:49 Mostly Cloudy with Thunderstorms 90 32 73 23 59 59 N 7 11 29.88 1012 10 16 0.00 0.00
6:53 pm 18:53 Mostly Cloudy with Thunderstorms 89 31.7 73 22.8 59 59 N 7 11 29.89 1012 10 16 0.00 0.00
7:53 pm 19:53 Mostly Cloudy with Thunderstorms 81 27.2 74 23.3 79 79 VRB 5 7 29.91 1013 9 14 0.00 0.00
8:39 pm 20:39 Mostly Cloudy with Nearby Thunderstorms 80 26.7 73 22.8 79 79 SE 5 7 29.93 1014 10 16 0.00 0.00
8:53 pm 20:53 Cloudy with Nearby Thunderstorms 79 26.1 73 22.8 82 82 SSE 3 6 29.93 1014 9 14 0.00 0.00
9:02 pm 21:02 Cloudy 78 25.6 73 22.8 85 85 VRB 5 7 29.95 1014 10 16 0.00 0.00
9:53 pm 21:53 Mostly Clear 77 25 70 21.1 79 79 VRB 3 6 29.96 1015 10 16 0.00 0.00
10:53 pm 22:53 Clear 75 23.9 70 21.1 84 84 SSE 3 6 29.96 1015 10 16 0.00 0.00
11:53 pm 23:53 Clear 74 23.3 71 21.7 91 91 Calm 29.96 1015 10 16 0.00 0.00

Powered by AerisWeather